Date String (YYYY-MM-DD hh:mm:ss) UTC,Instrument flags,absolute air pressure of the measurement (hPa),sample flow rate (lpm),inlet stack bypass flow (lpm),air temperature of the measurement (°C),ambient temperature measured by the external sensor (°C),aerosol sample conditioner tube jacket temperature (°C),OPC LED temperature (°C),internal box temperature (°C),relative humidity of the measurement (%),span deviation,mass concentration of particles derived from Lorenz-Mie calculation of OPC scattering (μg/m³),mass concentration of particles derived from Lorenz-Mie calculation of OPC scattering (μg/m³),mass concentration of particles derived from Lorenz-Mie calculation of OPC scattering (μg/m³)
DateTimeUTC,F1_M11,P_M11,Q1_M11,Q2_M11,T1_M11,T2_M11,T3_M11,T4_M11,T5_M11,U1_M11,ZSPAN_M11,X2_M11,X0_M11,X1_M11
2023-09-04 11:00:00,SystemResetWarning,0825.5,4.99,000.00,028.5,027.4,000.0,036.8,030.2,27.7,0000.0,0001.95,0005.03,0001.51
2023-09-04 11:01:00,SystemResetWarning,0825.5,5.00,000.00,028.6,027.5,000.0,036.9,030.2,27.8,0000.0,0001.90,0004.92,0001.47
2023-09-04 11:02:00,SystemResetWarning,0825.5,4.99,000.00,028.6,027.5,000.0,036.9,030.2,27.8,0000.0,0001.87,0004.88,0001.45
2023-09-04 11:03:00,SystemResetWarning,0825.4,5.00,000.00,028.6,027.5,000.0,036.9,030.2,27.8,0000.0,0001.84,0003.64,0001.44
2023-09-04 11:04:00,SystemResetWarning,0825.4,5.00,000.00,028.6,027.3,000.0,036.9,030.2,27.3,0000.0,0001.83,0003.29,0001.43
2023-09-04 11:05:00,SystemResetWarning,0825.4,5.00,000.00,028.6,025.8,000.0,036.8,029.7,27.3,0000.0,0001.85,0003.32,0001.43
2023-09-04 11:06:00,SystemResetWarning,0825.4,5.00,000.00,028.4,024.6,000.0,036.7,029.4,27.4,0000.0,0001.88,0003.55,0001.43
2023-09-04 11:07:00,SystemResetWarning,0825.3,5.00,000.00,028.3,024.3,000.0,036.7,029.3,27.5,0000.0,0001.89,0002.86,0001.44
2023-09-04 11:08:00,SystemResetWarning,0825.3,5.01,000.00,028.2,024.6,000.0,036.7,029.3,28.0,0000.0,0001.90,0002.79,0001.45
2023-09-04 11:09:00,SystemResetWarning,0825.3,5.01,000.00,028.1,025.0,000.0,036.7,029.3,28.5,0000.0,0001.91,0002.82,0001.46
2023-09-04 11:10:00,SystemResetWarning,0825.3,4.99,000.00,028.1,025.4,000.0,036.7,029.4,27.9,0000.0,0001.93,0003.65,0001.46
2023-09-04 11:11:00,SystemResetWarning,0825.4,4.99,000.00,028.1,025.7,000.0,036.7,029.5,27.3,0000.0,0001.93,0003.75,0001.47
2023-09-04 11:12:00,SystemResetWarning,0825.4,5.00,000.00,028.1,026.0,000.0,036.7,029.5,28.4,0000.0,0001.99,0003.97,0001.49
2023-09-04 11:13:00,SystemResetWarning,0825.4,5.01,000.00,028.1,026.2,000.0,036.7,029.6,28.9,0000.0,0002.00,0004.15,0001.50
2023-09-04 11:14:00,SystemResetWarning,0825.4,5.00,000.00,028.1,026.4,000.0,036.7,029.7,28.6,0000.0,0002.02,0004.51,0001.50
2023-09-04 11:15:00,SystemResetWarning,0825.4,4.99,000.00,028.2,026.5,000.0,036.7,029.7,27.9,0000.0,0002.05,0004.63,0001.50
2023-09-04 11:16:00,SystemResetWarning,0825.4,4.99,000.00,028.2,026.7,000.0,036.6,029.7,28.1,0000.0,0002.04,0004.65,0001.51
2023-09-04 11:17:00,SystemResetWarning,0825.4,5.00,000.00,028.2,026.8,000.0,036.7,029.8,28.5,0000.0,0002.05,0005.08,0001.51
2023-09-04 11:18:00,SystemResetWarning,0825.4,5.01,000.00,028.2,026.8,000.0,036.7,029.8,29.3,0000.0,0002.09,0005.27,0001.50
2023-09-04 11:19:00,SystemResetWarning,0825.4,5.01,000.00,028.2,026.9,000.0,036.7,029.8,29.2,0000.0,0002.08,0005.34,0001.49
2023-09-04 11:20:00,SystemResetWarning,0825.4,5.01,000.00,028.3,027.0,000.0,036.7,029.9,28.4,0000.0,0002.09,0005.40,0001.48
2023-09-04 11:21:00,SystemResetWarning,0825.4,5.00,000.00,028.3,027.0,000.0,036.7,029.9,27.9,0000.0,0002.07,0004.81,0001.47
2023-09-04 11:22:00,SystemResetWarning,0825.4,5.00,000.00,028.3,027.1,000.0,036.7,029.9,27.9,0000.0,0002.03,0004.41,0001.46
2023-09-04 11:23:00,SystemResetWarning,0825.3,4.99,000.00,028.3,027.1,000.0,036.7,029.9,28.2,0000.0,0001.97,0004.20,0001.44
2023-09-04 11:24:00,SystemResetWarning,0825.4,4.99,000.00,028.3,027.1,000.0,036.7,029.9,27.8,0000.0,0001.95,0004.03,0001.44
2023-09-04 11:25:00,SystemResetWarning,0825.4,5.00,000.00,028.4,027.2,000.0,036.7,029.9,27.2,0000.0,0001.96,0003.77,0001.44
2023-09-04 11:26:00,SystemResetWarning,0825.4,5.00,000.00,028.4,027.2,000.0,036.7,030.0,27.8,0000.0,0001.92,0003.62,0001.44
2023-09-04 11:27:00,SystemResetWarning,0825.4,5.00,000.00,028.4,027.2,000.0,036.8,030.0,28.2,0000.0,0001.89,0003.54,0001.43
2023-09-04 11:28:00,SystemResetWarning,0825.4,5.00,000.00,028.4,027.2,000.0,036.8,030.0,28.2,0000.0,0001.86,0003.01,0001.43
2023-09-04 11:29:00,SystemResetWarning,0825.4,5.00,000.00,028.5,027.3,000.0,036.8,030.0,28.4,0000.0,0001.85,0002.92,0001.43
2023-09-04 11:30:00,SystemResetWarning,0825.4,5.01,000.00,028.5,027.3,000.0,036.8,030.1,28.4,0000.0,0001.85,0002.89,0001.43
2023-09-04 11:31:00,SystemResetWarning,0825.4,5.00,000.00,028.5,027.3,000.0,036.8,030.1,28.4,0000.0,0001.81,0002.73,0001.43
2023-09-04 11:32:00,SystemResetWarning,0825.4,5.01,000.00,028.5,027.4,000.0,036.8,030.1,28.5,0000.0,0001.80,0002.87,0001.43
2023-09-04 11:33:00,SystemResetWarning,0825.4,5.00,000.00,028.5,027.4,000.0,036.8,030.1,28.1,0000.0,0001.83,0002.98,0001.43
2023-09-04 11:34:00,SystemResetWarning,0825.4,5.00,000.00,028.6,027.4,000.0,036.9,030.1,27.3,0000.0,0001.84,0003.01,0001.43
2023-09-04 11:35:00,SystemResetWarning,0825.4,5.00,000.00,028.6,027.4,000.0,036.9,030.2,26.9,0000.0,0001.83,0003.00,0001.42
2023-09-04 11:36:00,SystemResetWarning,0825.4,5.00,000.00,028.6,027.4,000.0,036.9,030.2,27.2,0000.0,0001.79,0002.96,0001.41
2023-09-04 11:37:00,SystemResetWarning,0825.4,4.99,000.00,028.6,027.4,000.0,036.9,030.2,28.0,0000.0,0001.78,0002.98,0001.40
2023-09-04 11:38:00,SystemResetWarning,0825.4,5.00,000.00,028.6,027.4,000.0,036.9,030.2,28.1,0000.0,0001.80,0003.07,0001.41
2023-09-04 11:39:00,SystemResetWarning,0825.4,5.00,000.00,028.6,027.5,000.0,036.9,030.2,27.2,0000.0,0001.81,0003.14,0001.42
2023-09-04 11:40:00,SystemResetWarning,0825.4,4.99,000.00,028.7,027.1,000.0,036.9,030.1,27.4,0000.0,0001.79,0003.03,0001.42
2023-09-04 11:41:00,SystemResetWarning,0825.3,5.00,000.00,028.5,025.4,000.0,036.8,029.6,28.1,0000.0,0001.81,0003.18,0001.42
2023-09-04 11:42:00,SystemResetWarning,0825.4,5.00,000.00,028.4,024.5,000.0,036.8,029.4,28.7,0000.0,0001.81,0003.17,0001.41
2023-09-04 11:43:00,SystemResetWarning,0825.4,5.01,000.00,028.3,024.4,000.0,036.7,029.2,29.0,0000.0,0001.78,0003.07,0001.41
2023-09-04 11:44:00,SystemResetWarning,0825.4,5.01,000.00,028.2,024.7,000.0,036.7,029.3,28.5,0000.0,0001.77,0002.94,0001.40
2023-09-04 11:45:00,SystemResetWarning,0825.5,5.00,000.00,028.1,025.1,000.0,036.7,029.4,28.5,0000.0,0001.76,0003.15,0001.41
2023-09-04 11:46:00,SystemResetWarning,0825.4,5.00,000.00,028.1,025.4,000.0,036.7,029.4,27.9,0000.0,0001.82,0004.12,0001.42
2023-09-04 11:47:00,SystemResetWarning,0825.5,5.01,000.00,028.1,025.7,000.0,036.7,029.5,27.6,0000.0,0001.83,0004.49,0001.41
2023-09-04 11:48:00,SystemResetWarning,0825.5,5.00,000.00,028.1,026.0,000.0,036.7,029.5,28.2,0000.0,0001.82,0004.43,0001.41
2023-09-04 11:49:00,SystemResetWarning,0825.5,5.00,000.00,028.1,026.2,000.0,036.7,029.6,28.0,0000.0,0001.80,0004.34,0001.41
2023-09-04 11:50:00,SystemResetWarning,0825.5,5.00,000.00,028.1,026.4,000.0,036.7,029.6,28.1,0000.0,0001.78,0004.94,0001.40
2023-09-04 11:51:00,SystemResetWarning,0825.5,5.00,000.00,028.2,026.5,000.0,036.7,029.7,28.2,0000.0,0001.80,0005.06,0001.41
2023-09-04 11:52:00,SystemResetWarning,0825.4,5.00,000.00,028.2,026.7,000.0,036.7,029.7,27.6,0000.0,0001.78,0004.84,0001.40
2023-09-04 11:53:00,SystemResetWarning,0825.5,5.00,000.00,028.2,026.8,000.0,036.7,029.7,27.3,0000.0,0001.77,0004.77,0001.40
2023-09-04 11:54:00,SystemResetWarning,0825.4,5.00,000.00,028.2,026.8,000.0,036.7,029.7,27.2,0000.0,0001.79,0004.81,0001.41
2023-09-04 11:55:00,SystemResetWarning,0825.4,5.00,000.00,028.2,026.9,000.0,036.7,029.8,27.0,0000.0,0001.85,0004.84,0001.42
2023-09-04 11:56:00,SystemResetWarning,0825.4,5.00,000.00,028.3,026.9,000.0,036.7,029.8,27.4,0000.0,0001.92,0004.82,0001.44
2023-09-04 11:57:00,SystemResetWarning,0825.4,4.99,000.00,028.3,027.0,000.0,036.7,029.8,27.2,0000.0,0001.91,0004.28,0001.44
2023-09-04 11:58:00,SystemResetWarning,0825.4,4.99,000.00,028.3,027.0,000.0,036.7,029.9,27.3,0000.0,0001.87,0003.60,0001.44
2023-09-04 11:59:00,SystemResetWarning,0825.4,5.00,000.00,028.3,027.1,000.0,036.7,029.9,27.4,0000.0,0001.89,0003.64,0001.45
